Weather History for Omak, WA

Change the Weather History Date:

Friday, November 18, 2011

  Actual Average Record
Temperature  
Mean Temperature 32 °F 35 °F  
Max Temperature 35 °F 42 °F 55 °F (1938)
Min Temperature 28 °F 27 °F 10 °F (1955)
Degree Days  
Heating Degree Days 33 30  
Month to date heating degree days 610 479  
Since 1 July heating degree days 1283 1139  
Cooling Degree Days 0 0  
Month to date cooling degree days 0 0  
Year to date cooling degree days 424 665  
Moisture  
Dew Point 29 °F    
Average Humidity 91    
Maximum Humidity 100    
Minimum Humidity 82    
Precipitation  
Precipitation 0.10 in 0.05 in 0.70 in (1934)
Month to date precipitation 0.33 1.10  
Year to date precipitation 9.76 11.80  
Sea Level Pressure  
Sea Level Pressure 29.61 in    
Wind  
Wind Speed 7 mph (NNW)    
Max Wind Speed 13 mph    
Max Gust Speed 16 mph    
Visibility 5 miles    
Events Fog , Snow    
T = Trace of Precipitation, MM = Missing Value Source: NWS Daily Summary

Daily Weather History Graph

Daily Weather History Graph

Search for Another Location

Airport:

Trip Planner

Search our weather history database for the weather conditions in past years. The results will help you decide how hot, cold, wet, or windy it might be!

Date:

Astronomy

Nov. 18, 2011 Rise Set
Actual Time 7:10 AM PST 4:15 PM PST
Civil Twilight 6:35 AM PST 4:50 PM PST
Nautical Twilight 5:57 AM PST 5:28 PM PST
Astronomical Twilight 5:20 AM PST 6:05 PM PST
Moon No Moon Rise 12:36 PM PST (11/18)
Length of Visible Light 10h 14m
Length of Day
9h 05m
Waning Gibbous, 48% of the Moon is Illuminated
Nov 18
Waning Gibbous
Nov 24
New
Dec 2
First Quarter
Dec 10
Full
Dec 17
Last Quarter

Hourly Weather History & Observations

Time (PST) Temp. Windchill Dew Point Humidity Pressure Visibility Wind Dir Wind Speed Gust Speed Precip Events Conditions
12:02 AM 30.2 °F - 30.2 °F 100% 29.58 in 2.0 mi Calm Calm - 0.00 in Snow Light Snow
12:07 AM 30.2 °F 26.7 °F 30.2 °F 100% 29.58 in 1.8 mi NW 3.5 mph - 0.00 in Snow Light Snow
12:16 AM 32.0 °F - 30.2 °F 93% 29.58 in 1.5 mi Calm Calm - 0.00 in Snow Light Snow
12:35 AM 32.0 °F 26.4 °F 30.2 °F 93% 29.57 in 3.0 mi North 5.8 mph - 0.01 in Snow Light Snow
12:53 AM 30.9 °F 26.2 °F 30.0 °F 96% 29.61 in 4.0 mi NW 4.6 mph - 0.01 in Snow Light Snow
1:00 AM 30.2 °F - 30.2 °F 100% 29.57 in 4.0 mi Calm Calm - 0.00 in Snow Light Snow
1:05 AM 30.2 °F 26.7 °F 30.2 °F 100% 29.57 in 2.5 mi NNW 3.5 mph - 0.00 in Snow Light Snow
1:15 AM 30.2 °F 26.7 °F 30.2 °F 100% 29.57 in 1.0 mi North 3.5 mph - 0.01 in Snow Light Snow
1:33 AM 30.2 °F 26.7 °F 30.2 °F 100% 29.57 in 1.2 mi North 3.5 mph - 0.02 in Snow Light Snow
1:45 AM 30.2 °F 26.7 °F 30.2 °F 100% 29.57 in 2.0 mi North 3.5 mph - 0.02 in Snow Light Snow
1:53 AM 30.9 °F - 30.0 °F 96% 29.60 in 2.5 mi Calm Calm - 0.02 in Snow Light Snow
2:04 AM 30.2 °F 26.7 °F 30.2 °F 100% 29.56 in 5.0 mi North 3.5 mph - 0.01 in Snow Light Snow
2:27 AM 30.2 °F 25.4 °F 28.4 °F 93% 29.54 in 9.0 mi NNE 4.6 mph - 0.01 in   Overcast
2:53 AM 30.9 °F - 30.0 °F 96% 29.58 in 10.0 mi Calm Calm - 0.01 in   Overcast
3:53 AM 30.9 °F 25.2 °F 28.9 °F 92% 29.58 in 8.0 mi North 5.8 mph - N/A   Overcast
4:11 AM 30.2 °F 25.4 °F 28.4 °F 93% 29.54 in 1.8 mi North 4.6 mph - 0.00 in Snow Light Snow
4:23 AM 30.2 °F 25.4 °F 28.4 °F 93% 29.54 in 2.0 mi North 4.6 mph - 0.00 in Snow Light Snow
4:53 AM 30.9 °F 25.2 °F 28.9 °F 92% 29.59 in 2.5 mi North 5.8 mph - 0.00 in Snow Light Snow
5:53 AM 30.9 °F 24.3 °F 28.9 °F 92% 29.58 in 10.0 mi NNW 6.9 mph - 0.01 in   Overcast
6:53 AM 32.0 °F 26.4 °F 28.9 °F 88% 29.58 in 10.0 mi North 5.8 mph - N/A   Overcast
8:53 AM 32.0 °F 24.8 °F 28.9 °F 88% 29.59 in 10.0 mi North 8.1 mph - 0.00 in   Overcast
9:45 AM 32.0 °F 26.4 °F 28.4 °F 87% 29.56 in 1.8 mi North 5.8 mph - 0.00 in Snow Light Snow
9:53 AM 32.0 °F 25.6 °F 28.9 °F 88% 29.60 in 0.8 mi NW 6.9 mph - 0.01 in Snow Light Snow
10:04 AM 32.0 °F 24.8 °F 28.4 °F 87% 29.56 in 0.2 mi NNW 8.1 mph - 0.02 in Fog , Snow Heavy Snow
10:17 AM 32.0 °F 25.6 °F 30.2 °F 93% 29.56 in 0.8 mi NNW 6.9 mph - 0.02 in Snow Light Snow
10:21 AM 32.0 °F 25.6 °F 30.2 °F 93% 29.56 in 1.2 mi NNW 6.9 mph - 0.02 in Snow Light Snow
10:29 AM 32.0 °F 26.4 °F 30.2 °F 93% 29.56 in 3.0 mi North 5.8 mph - 0.02 in Snow Light Snow
10:53 AM 33.1 °F 26.1 °F 30.0 °F 89% 29.60 in 6.0 mi North 8.1 mph - 0.02 in Snow Light Snow
11:00 AM 33.8 °F 27.7 °F 30.2 °F 87% 29.56 in 8.0 mi North 6.9 mph - 0.00 in   Overcast
11:26 AM 33.8 °F 25.8 °F 30.2 °F 87% 29.56 in 10.0 mi North 10.4 mph - 0.00 in   Overcast
11:45 AM 33.8 °F 25.8 °F 30.2 °F 87% 29.55 in 10.0 mi North 10.4 mph - 0.00 in   Overcast
11:53 AM 33.1 °F 24.4 °F 30.0 °F 89% 29.59 in 10.0 mi North 11.5 mph - 0.00 in   Overcast
12:05 PM 33.8 °F 25.8 °F 30.2 °F 87% 29.56 in 10.0 mi North 10.4 mph - N/A   Overcast
12:19 PM 33.8 °F 27.0 °F 30.2 °F 87% 29.56 in 10.0 mi North 8.1 mph - N/A   Overcast
12:44 PM 33.8 °F 26.4 °F 30.2 °F 87% 29.55 in 10.0 mi North 9.2 mph - N/A   Mostly Cloudy
12:53 PM 35.1 °F 28.6 °F 30.9 °F 85% 29.60 in 10.0 mi North 8.1 mph - N/A   Scattered Clouds
1:53 PM 33.1 °F 24.9 °F 28.0 °F 82% 29.60 in 10.0 mi North 10.4 mph - N/A   Partly Cloudy
2:53 PM 32.0 °F 24.2 °F 28.9 °F 88% 29.61 in 10.0 mi NNW 9.2 mph - N/A   Overcast
4:41 PM 32.0 °F 25.6 °F 28.4 °F 87% 29.61 in 10.0 mi NW 6.9 mph - N/A   Overcast
4:53 PM 32.0 °F 24.8 °F 28.0 °F 85% 29.65 in 10.0 mi NW 8.1 mph - N/A   Overcast
5:53 PM 32.0 °F 26.4 °F 28.0 °F 85% 29.67 in 10.0 mi NNW 5.8 mph - N/A   Overcast
6:53 PM 32.0 °F 25.6 °F 28.0 °F 85% 29.68 in 9.0 mi North 6.9 mph - 0.00 in Snow Light Snow
8:53 PM 30.9 °F 22.8 °F 28.0 °F 89% 29.71 in 9.0 mi NNW 9.2 mph - 0.00 in Snow Light Snow
9:53 PM 30.9 °F 22.2 °F 27.0 °F 85% 29.73 in 4.0 mi NNW 10.4 mph - 0.00 in Snow Light Snow
10:13 PM 30.2 °F 22.6 °F 28.4 °F 93% 29.69 in 2.0 mi NNW 8.1 mph - 0.01 in Snow Light Snow
10:20 PM 30.2 °F 22.6 °F 28.4 °F 93% 29.69 in 2.0 mi NNW 8.1 mph - 0.01 in Snow Light Snow
10:40 PM 30.2 °F 21.3 °F 28.4 °F 93% 29.70 in 1.8 mi NNW 10.4 mph - 0.01 in Snow Light Snow
10:53 PM 30.0 °F 22.4 °F 28.0 °F 92% 29.74 in 1.8 mi NNW 8.1 mph - 0.01 in Snow Light Snow
11:05 PM 30.2 °F 21.9 °F 28.4 °F 93% 29.70 in 2.5 mi NNW 9.2 mph - 0.01 in Snow Light Snow
11:10 PM 30.2 °F 21.9 °F 26.6 °F 86% 29.70 in 3.0 mi NNW 9.2 mph - 0.01 in Snow Light Snow
11:17 PM 30.2 °F 21.9 °F 26.6 °F 86% 29.70 in 3.0 mi NNW 9.2 mph - 0.01 in Snow Light Snow
11:53 PM 28.9 °F 20.4 °F 26.1 °F 89% 29.76 in 8.0 mi NNW 9.2 mph - 0.01 in Snow Light Snow